Hourly Weather Rusaniv

Today, 11 April, Sunday

Time Temperature Precipitation Wind Pressure Humidity
00:00 +4°C° 0 mm 3 mps 759 mmHg 62%
01:00 +4°C° 0 mm 3 mps 760 mmHg 63%
02:00 +4°C° 0 mm 2 mps 760 mmHg 64%
03:00 +4°C° 0 mm 2 mps 760 mmHg 64%
04:00 +4°C° 0 mm 2 mps 760 mmHg 64%
05:00 +4°C° 0 mm 2 mps 760 mmHg 65%
06:00 +5°C° 0 mm 2 mps 760 mmHg 61%
07:00 +6°C° 0 mm 2 mps 761 mmHg 57%
08:00 +8°C° 0 mm 2 mps 761 mmHg 54%
09:00 +9°C° 0 mm 2 mps 761 mmHg 49%
10:00 +12°C° 0 mm 2 mps 761 mmHg 45%
11:00 +13°C° 0 mm 2 mps 761 mmHg 40%
12:00 +14°C° 0 mm 2 mps 761 mmHg 38%
13:00 +14°C° 0 mm 2 mps 761 mmHg 36%
14:00 +15°C° 0 mm 2 mps 760 mmHg 34%
15:00 +15°C° 0 mm 2 mps 760 mmHg 36%
16:00 +15°C° 0 mm 2 mps 760 mmHg 37%
17:00 +15°C° 0 mm 2 mps 760 mmHg 38%
18:00 +13°C° 0 mm 2 mps 760 mmHg 43%
19:00 +12°C° 0 mm 2 mps 760 mmHg 47%
20:00 +9°C° 0 mm 2 mps 760 mmHg 52%
21:00 +9°C° 0 mm 2 mps 760 mmHg 54%
22:00 +8°C° 0 mm 2 mps 760 mmHg 56%
23:00 +8°C° 0 mm 2 mps 760 mmHg 57%

Tomorrow, 12 April, Monday

Time Temperature Precipitation Wind Pressure Humidity
00:00 +7°C° 0 mm 2 mps 760 mmHg 59%
01:00 +7°C° 0 mm 2 mps 760 mmHg 61%
02:00 +6°C° 0 mm 2 mps 760 mmHg 63%
03:00 +6°C° 0 mm 2 mps 759 mmHg 65%
04:00 +6°C° 0 mm 2 mps 759 mmHg 67%
05:00 +5°C° 0 mm 2 mps 759 mmHg 68%
06:00 +5°C° 0 mm 3 mps 759 mmHg 65%
07:00 +8°C° 0 mm 3 mps 759 mmHg 61%
08:00 +9°C° 0 mm 3 mps 759 mmHg 58%
09:00 +10°C° 0 mm 3 mps 758 mmHg 54%
10:00 +11°C° 0 mm 3 mps 758 mmHg 50%
11:00 +12°C° 0 mm 3 mps 757 mmHg 47%
12:00 +12°C° 0 mm 3 mps 757 mmHg 52%
13:00 +12°C° 0 mm 3 mps 757 mmHg 56%
14:00 +12°C° 0 mm 3 mps 757 mmHg 61%
15:00 +12°C° 0.1 mm 3 mps 757 mmHg 68%
16:00 +11°C° 0.1 mm 3 mps 756 mmHg 74%
17:00 +10°C° 0.1 mm 3 mps 756 mmHg 80%
18:00 +10°C° 0 mm 2 mps 756 mmHg 83%
19:00 +10°C° 0 mm 2 mps 756 mmHg 86%
20:00 +11°C° 0 mm 1 mps 756 mmHg 88%
21:00 +10°C° 0 mm 1 mps 756 mmHg 89%
22:00 +9°C° 0 mm 2 mps 755 mmHg 90%
23:00 +9°C° 0 mm 2 mps 755 mmHg 91%

Day after tomorrow, 13 April, Tuesday

Time Temperature Precipitation Wind Pressure Humidity
00:00 +9°C° 0 mm 2 mps 755 mmHg 91%
01:00 +9°C° 0 mm 2 mps 755 mmHg 91%
02:00 +9°C° 0 mm 2 mps 754 mmHg 91%
03:00 +9°C° 0 mm 2 mps 754 mmHg 92%
04:00 +9°C° 0 mm 2 mps 754 mmHg 92%
05:00 +9°C° 0 mm 2 mps 754 mmHg 93%
06:00 +10°C° 0 mm 2 mps 754 mmHg 91%
07:00 +10°C° 0 mm 2 mps 754 mmHg 89%
08:00 +12°C° 0 mm 2 mps 754 mmHg 87%
09:00 +12°C° 0 mm 2 mps 754 mmHg 84%
10:00 +13°C° 0 mm 1 mps 754 mmHg 81%
11:00 +14°C° 0 mm 1 mps 754 mmHg 78%
12:00 +14°C° 0 mm 1 mps 753 mmHg 76%
13:00 +15°C° 0 mm 1 mps 753 mmHg 75%
14:00 +15°C° 0 mm 1 mps 753 mmHg 73%
15:00 +15°C° 0 mm 2 mps 753 mmHg 76%
16:00 +15°C° 0 mm 2 mps 753 mmHg 78%
17:00 +13°C° 0 mm 3 mps 753 mmHg 80%
18:00 +13°C° 0 mm 3 mps 753 mmHg 83%
19:00 +12°C° 0 mm 3 mps 753 mmHg 86%
20:00 +11°C° 0 mm 3 mps 753 mmHg 89%
21:00 +11°C° 0 mm 3 mps 753 mmHg 89%
22:00 +11°C° 0 mm 3 mps 753 mmHg 90%
23:00 +10°C° 0 mm 3 mps 753 mmHg 91%

14 April, Wednesday

Time Temperature Precipitation Wind Pressure Humidity
00:00 +10°C° 0 mm 3 mps 753 mmHg 91%
01:00 +10°C° 0 mm 3 mps 753 mmHg 90%
02:00 +9°C° 0 mm 3 mps 753 mmHg 90%
03:00 +9°C° 0 mm 2 mps 752 mmHg 90%
04:00 +9°C° 0 mm 2 mps 752 mmHg 89%
05:00 +9°C° 0 mm 2 mps 752 mmHg 88%
06:00 +9°C° 0 mm 2 mps 752 mmHg 86%
07:00 +10°C° 0 mm 2 mps 752 mmHg 85%
08:00 +10°C° 0 mm 2 mps 752 mmHg 83%
09:00 +11°C° 0 mm 3 mps 752 mmHg 75%
10:00 +12°C° 0 mm 4 mps 752 mmHg 67%
11:00 +13°C° 0 mm 4 mps 752 mmHg 59%
12:00 +13°C° 0 mm 4 mps 752 mmHg 58%
13:00 +14°C° 0 mm 4 mps 752 mmHg 56%
14:00 +14°C° 0 mm 4 mps 751 mmHg 54%
15:00 +14°C° 0 mm 4 mps 751 mmHg 56%
16:00 +14°C° 0 mm 3 mps 751 mmHg 57%
17:00 +15°C° 0 mm 2 mps 751 mmHg 58%
18:00 +14°C° 0 mm 2 mps 751 mmHg 61%
19:00 +13°C° 0 mm 2 mps 751 mmHg 64%
20:00 +13°C° 0 mm 2 mps 751 mmHg 68%
21:00 +12°C° 0 mm 1 mps 751 mmHg 69%
22:00 +12°C° 0 mm 1 mps 751 mmHg 71%
23:00 +12°C° 0 mm 1 mps 751 mmHg 72%

15 April, Thursday

Time Temperature Precipitation Wind Pressure Humidity
00:00 +12°C° 0 mm 1 mps 751 mmHg 73%
01:00 +12°C° 0 mm 1 mps 751 mmHg 73%
02:00 +11°C° 0 mm 1 mps 750 mmHg 73%
03:00 +11°C° 0 mm 1 mps 750 mmHg 74%
04:00 +11°C° 0 mm 1 mps 750 mmHg 75%
05:00 +11°C° 0 mm 1 mps 750 mmHg 76%
06:00 +11°C° 0.4 mm 1 mps 750 mmHg 80%
07:00 +10°C° 0.4 mm 2 mps 750 mmHg 84%
08:00 +10°C° 0.4 mm 2 mps 750 mmHg 88%
09:00 +11°C° 0.6 mm 1 mps 750 mmHg 89%
10:00 +11°C° 0.6 mm 1 mps 749 mmHg 90%
11:00 +11°C° 0.6 mm 1 mps 749 mmHg 90%
12:00 +11°C° 0.1 mm 1 mps 749 mmHg 89%
13:00 +12°C° 0.1 mm 1 mps 749 mmHg 87%
14:00 +12°C° 0.1 mm 1 mps 749 mmHg 85%
15:00 +12°C° 0.1 mm 1 mps 748 mmHg 86%
16:00 +12°C° 0.1 mm 1 mps 748 mmHg 87%
17:00 +12°C° 0.1 mm 2 mps 748 mmHg 88%
18:00 +10°C° 0.1 mm 2 mps 748 mmHg 89%
19:00 +10°C° 0.1 mm 2 mps 748 mmHg 90%
20:00 +10°C° 0.1 mm 2 mps 748 mmHg 91%
21:00 +10°C° 0.1 mm 3 mps 748 mmHg 91%
22:00 +10°C° 0.1 mm 3 mps 747 mmHg 91%
23:00 +9°C° 0.1 mm 3 mps 747 mmHg 91%

16 April, Friday

Time Temperature Precipitation Wind Pressure Humidity
00:00 +9°C° 0.2 mm 3 mps 747 mmHg 91%
01:00 +8°C° 0.2 mm 4 mps 746 mmHg 92%
02:00 +8°C° 0.2 mm 4 mps 746 mmHg 92%
03:00 +8°C° 0 mm 5 mps 746 mmHg 91%
04:00 +8°C° 0 mm 5 mps 746 mmHg 90%
05:00 +8°C° 0 mm 6 mps 746 mmHg 88%
06:00 +8°C° 0.1 mm 6 mps 746 mmHg 89%
07:00 +8°C° 0.1 mm 7 mps 746 mmHg 89%
08:00 +8°C° 0.1 mm 7 mps 747 mmHg 89%
09:00 +8°C° 0.4 mm 7 mps 747 mmHg 89%
10:00 +8°C° 0.4 mm 7 mps 747 mmHg 88%
11:00 +7°C° 0.4 mm 8 mps 748 mmHg 88%
12:00 +7°C° 0 mm 8 mps 748 mmHg 87%
13:00 +7°C° 0 mm 8 mps 749 mmHg 86%
14:00 +6°C° 0 mm 9 mps 749 mmHg 85%
15:00 +6°C° 0.1 mm 9 mps 750 mmHg 86%
16:00 +5°C° 0.1 mm 9 mps 751 mmHg 86%
17:00 +5°C° 0.1 mm 9 mps 752 mmHg 86%
18:00 +4°C° 0 mm 8 mps 752 mmHg 86%
19:00 +4°C° 0 mm 8 mps 753 mmHg 86%
20:00 +2°C° 0 mm 8 mps 754 mmHg 85%
21:00 +4°C° 0 mm 8 mps 755 mmHg 80%
22:00 +4°C° 0 mm 7 mps 755 mmHg 74%
23:00 +4°C° 0 mm 6 mps 755 mmHg 69%
Show more